Regional Weather Roundup
Issued by NWS Cleveland, OH

Home | Current Version | Previous Version | Text Only | Print | Product List | Glossary Off
Versions: 1 2 3 4 5 6 7 8 9 10 11 12 13 14 15 16 17 18 19 20 21 22 23 24 25 26 27 28 29 30 31 32 33 34 35 36 37 38 39 40 41 42 43 44 45 46 47 48 49 50

000
ASUS41 KCLE 260802
RWRCLE
OHIO REGIONAL WEATHER ROUNDUP
NATIONAL WEATHER SERVICE CLEVELAND, OH
300 AM EST MON JAN 26 2015

NOTE: "FAIR" INDICATES FEW OR NO CLOUDS BELOW 12,000 FEET WITH NO
SIGNIFICANT WEATHER AND/OR OBSTRUCTIONS TO VISIBILITY.

OHZ001>008-015>018-024>027-034-035-043-044-260900-
   NORTHWEST OHIO

CITY           SKY/WX    TMP DP  RH WIND       PRES   REMARKS
DEFIANCE       CLOUDY    19   7  59 NE13      29.92R WCI   6
FINDLAY        LGT SNOW  18  13  80 NE17      29.86R WCI   3
TOLEDO EXPRESS CLOUDY    17   5  59 NE12      29.91S WCI   4
TOLEDO EXEC    CLOUDY    17   6  62 NE12G22   29.92S WCI   4
LIMA           LGT SNOW  17  12  80 N15       29.83S WCI   2
$$

OHZ009>014-019>023-028>033-038-089-260900-
   NORTHEAST OHIO

CITY           SKY/WX    TMP DP  RH WIND       PRES   REMARKS
CLE-HOPKINS    LGT SNOW  19  13  77 NE17      29.87F WCI   4
CLE-LAKEFRONT  FLURRIES  20  11  68 NE16      29.86S WCI   6
CUY CO. ARPT   NOT AVBL
LORAIN-ELYRIA  LGT SNOW  19  13  77 NE17      29.85F WCI   4
ASHTABULA      CLOUDY    17   7  64 NE7       29.85F WCI   8
AKRON-CANTON   LGT SNOW  20  16  84 NE14      29.76F VSB 1   WCI   7
WOOSTER        LGT SNOW  19  16  88 N10       29.79R FOG     WCI   7
MANSFIELD      LGT SNOW  19  16  88 N13       29.78S FOG     WCI   6
YOUNGSTOWN     LGT SNOW  18  15  88 NE12      29.78F VSB 1   WCI   5
$$

OHZ042-051>053-060>062-070>072-077>081-260900-
  SOUTHWEST OHIO

CITY           SKY/WX    TMP DP  RH WIND       PRES   REMARKS
CINC-COVINGTON LGT SNOW  25  22  88 N16G26    29.74R FOG     WCI  12
CINC-LUNKEN    LGT SNOW  26  22  84 N13       29.78S FOG     WCI  15
HAMILTON       LGT SNOW  24  21  88 N10       29.79S FOG     WCI  14
DAYTON         LGT SNOW  20  16  84 N17       29.79R FOG     WCI   5
WRIGHT-PAT AFB NOT AVBL
DAYTON GENERAL LGT SNOW  22  20  92 N12       29.75S FOG     WCI  10
WILMINGTON     LGT SNOW  22  18  85 N20G26    29.72R FOG     WCI   7
$$

OHZ036-037-039>041-045>050-054>059-063>069-073>076-082>088-260900-
  CENTRAL AND SOUTHEAST OHIO

CITY           SKY/WX    TMP DP  RH WIND       PRES   REMARKS
COLUMBUS       LGT SNOW  23  20  88 N13       29.75R FOG     WCI  11
OSU AIRPORT    LGT SNOW  22  18  85 N15       29.75S FOG     WCI   9
BOLTON FIELD   NOT AVBL
RICKENBACK AFB NOT AVBL
NEWARK         LGT SNOW  25  21  85 N8        29.73S FOG     WCI  16
MARION         LGT SNOW  20  16  84 NE21      29.80S VSB 1   WCI   4
LANCASTER      LGT SNOW  27  24  89 N8        29.72S FOG     WCI  19
ZANESVILLE     LGT SNOW  25  22  88 N10       29.72S FOG     WCI  15
NEW PHILLY     LGT SNOW  22  19  89 N7        29.77S VSB 1   WCI  13
$$


USA.gov is the U.S. government's official web portal to all federal, state and local government web resources and services.